DW8215 Weather Reports


Display with metric or nautical units.
time (UTC)temp
F
wind
direction
speed
MPH
gust
MPH
rain 1hr
in
rain 24hr
in
rain mn
in
humidity
%
barometer
mb
20260906164600 74 28 0.0 0.0 0.00 0.00 0.00 80 1020.9
20260906163109 73 26 0.0 0.0 0.00 0.00 0.00 78 1021.0
20260906161554 73 355 0.0 3.0 0.00 0.00 0.00 79 1021.0
20260906160055 73 119 0.0 2.0 0.00 0.00 0.00 82 1021.1
20260906154549 72 137 2.0 5.0 0.00 0.00 0.00 83 1021.2
20260906153047 71 145 1.0 4.0 0.00 0.00 0.00 80 1021.1
20260906151546 71 141 0.0 4.0 0.00 0.00 0.00 82 1021.3
20260906150040 69 164 0.0 1.0 0.00 0.00 0.00 88 1021.4
20260906144543 67 277 0.0 0.0 0.00 0.00 0.00 93 1021.5
20260906143038 64 178 0.0 3.0 0.00 0.00 0.00 96 1021.5
20260906141529 62 134 0.0 4.0 0.00 0.00 0.00 98 1021.7
20260906140028 62 145 0.0 3.0 0.00 0.00 0.00 100 1021.7
20260906134523 60 145 1.0 3.0 0.00 0.00 0.00 100 1021.7
20260906133019 59 140 0.0 3.0 0.00 0.00 0.00 100 1021.8
20260906131519 58 5 0.0 0.0 0.00 0.00 0.00 100 1021.8
20260906130017 57 5 0.0 0.0 0.00 0.00 0.00 100 1021.6
20260906124514 56 5 0.0 0.0 0.00 0.00 0.00 100 1021.5
20260906123017 55 5 0.0 0.0 0.00 0.00 0.00 100 1021.4
20260906121516 55 5 0.0 0.0 0.00 0.00 0.00 100 1021.5
20260906120013 54 5 0.0 0.0 0.00 0.00 0.00 100 1021.5
20260906114523 54 5 0.0 0.0 0.00 0.00 0.00 100 1021.3
20260906113013 53 5 0.0 0.0 0.00 0.00 0.00 99 1021.1
20260906111509 54 5 0.0 0.0 0.00 0.00 0.00 100 1021.0
20260906110007 53 5 0.0 0.0 0.00 0.00 0.00 99 1021.0
20260906104511 54 5 0.0 0.0 0.00 0.00 0.00 99 1020.9
20260906103004 54 5 0.0 0.0 0.00 0.00 0.00 99 1020.9
20260906101511 54 5 0.0 0.0 0.00 0.00 0.00 99 1020.8
20260906100002 54 5 0.0 0.0 0.00 0.00 0.00 99 1020.7
20260906094501 54 5 0.0 0.0 0.00 0.00 0.00 99 1020.8
20260906093000 54 5 0.0 0.0 0.00 0.00 0.00 99 1020.8
20260906091600 54 5 0.0 0.0 0.00 0.00 0.00 99 1020.7
20260906090100 54 5 0.0 0.0 0.00 0.00 0.00 99 1020.7
20260906084558 55 5 0.0 0.0 0.00 0.00 0.00 99 1020.7
20260906083057 55 5 0.0 0.0 0.00 0.00 0.00 99 1020.7
20260906081557 55 5 0.0 0.0 0.00 0.00 0.00 99 1020.7
20260906074555 55 5 0.0 0.0 0.00 0.00 0.00 99 1020.8
20260906073054 55 5 0.0 0.0 0.00 0.00 0.00 99 1020.6
20260906071554 56 5 0.0 0.0 0.00 0.00 0.00 99 1020.8
20260906070056 56 5 0.0 0.0 0.00 0.00 0.00 99 1020.7
20260906064552 56 5 0.0 0.0 0.00 0.00 0.00 99 1020.7
20260906063048 56 5 0.0 0.0 0.00 0.00 0.00 99 1020.6
20260906061546 56 5 0.0 0.0 0.00 0.00 0.00 99 1020.5
20260906060043 57 5 0.0 0.0 0.00 0.00 0.00 99 1020.1
20260906054557 57 5 0.0 0.0 0.00 0.00 0.00 99 1019.9
20260906053041 57 5 0.0 0.0 0.00 0.00 0.00 99 1019.9
20260906051601 57 5 0.0 0.0 0.00 0.00 0.00 98 1019.9
20260906050044 58 5 0.0 0.0 0.00 0.00 0.00 98 1019.9
20260906044545 58 5 0.0 0.0 0.00 0.00 0.00 98 1019.9
20260906043035 58 5 0.0 0.0 0.00 0.00 0.00 98 1019.7
20260906041534 58 5 0.0 0.0 0.00 0.00 0.00 98 1019.7
20260906040057 59 5 0.0 0.0 0.00 0.00 0.00 98 1019.6
20260906034531 59 5 0.0 0.0 0.00 0.00 0.00 98 1019.6
20260906033044 59 5 0.0 0.0 0.00 0.00 0.00 98 1019.4
20260906031530 59 5 0.0 0.0 0.00 0.00 0.00 97 1019.3
20260906030030 60 5 0.0 0.0 0.00 0.00 0.00 97 1019.3
20260906024529 60 5 0.0 0.0 0.00 0.00 0.00 97 1019.1
20260906023028 61 5 0.0 0.0 0.00 0.00 0.00 96 1019.2
20260906021528 61 5 0.0 0.0 0.00 0.00 0.00 96 1019.2
20260906020028 62 5 0.0 0.0 0.00 0.00 0.00 96 1019.1
20260906014529 62 5 0.0 0.0 0.00 0.00 0.00 95 1018.9
20260906013030 63 5 0.0 0.0 0.00 0.00 0.00 95 1018.7
20260906011527 63 5 0.0 0.0 0.00 0.00 0.00 94 1018.6
20260906010026 64 5 0.0 0.0 0.00 0.00 0.00 94 1018.6
20260906004526 64 333 0.0 2.0 0.00 0.00 0.00 93 1018.6
20260906003025 65 343 0.0 0.0 0.00 0.00 0.00 93 1018.5
20260906001525 65 355 1.0 4.0 0.00 0.00 0.00 92 1018.5
20260906000024 66 355 2.0 5.0 0.00 0.00 0.00 91 1018.6
20260905234524 66 355 2.0 4.0 0.00 0.00 0.00 90 1018.6
20260905233023 67 360 2.0 5.0 0.00 0.00 0.00 89 1018.5
20260905231523 68 5 2.0 6.0 0.00 0.00 0.00 88 1018.6
20260905230021 68 360 4.0 6.0 0.00 0.00 0.00 87 1018.5
20260905224549 69 355 3.0 8.0 0.00 0.00 0.00 86 1018.8
20260905223022 69 5 2.0 6.0 0.00 0.00 0.00 86 1018.6
20260905221520 70 346 2.0 8.0 0.00 0.00 0.00 84 1018.6
20260905220019 71 340 3.0 6.0 0.00 0.00 0.00 83 1018.6
20260905214518 71 9 1.0 6.0 0.00 0.00 0.00 83 1018.5
20260905213018 71 333 2.0 6.0 0.00 0.00 0.00 82 1018.8
20260905211536 72 22 3.0 8.0 0.00 0.00 0.00 81 1018.6
20260905210023 72 355 2.0 8.0 0.00 0.00 0.00 83 1018.8
20260905204516 72 351 2.0 9.0 0.00 0.00 0.00 83 1018.8
20260905203017 72 355 3.0 6.0 0.00 0.00 0.00 80 1018.7
20260905201520 72 351 3.0 6.0 0.00 0.00 0.00 82 1018.7
20260905200022 72 24 3.0 8.0 0.00 0.00 0.00 82 1018.7
20260905194517 73 349 2.0 5.0 0.00 0.00 0.00 80 1018.7
20260905193013 73 10 3.0 5.0 0.00 0.00 0.00 81 1018.9
20260905191516 73 355 2.0 6.0 0.00 0.00 0.00 82 1019.1
20260905190012 72 22 0.0 5.0 0.00 0.00 0.00 84 1019.1
20260905184524 72 16 4.0 9.0 0.00 0.00 0.00 82 1019.1
20260905183011 72 40 1.0 6.0 0.00 0.00 0.00 84 1019.3
20260905181511 72 5 2.0 5.0 0.00 0.00 0.00 84 1019.4
20260905180009 71 14 2.0 6.0 0.00 0.00 0.00 84 1019.2
20260905174508 72 339 3.0 6.0 0.00 0.00 0.00 84 1019.4
20260905173008 73 19 1.0 4.0 0.00 0.00 0.00 85 1019.6
20260905171509 73 360 0.0 4.0 0.00 0.00 0.00 86 1019.8
20260905170003 72 5 0.0 2.0 0.00 0.00 0.00 87 1020.0